Regional Weather Roundup
Issued by NWS

Home | Current Version | Previous Version | Text Only | Print | Product List | Glossary On
Versions: 1 2 3 4 5 6 7 8 9 10 11 12 13 14 15 16 17 18 19 20 21 22 23 24 25 26 27 28 29 30 31 32 33 34 35 36 37 38 39 40 41 42 43 44 45 46 47 48 49 50
000
ASUS43 KDMX 071003
RWRIA

WEATHER ROUNDUP FOR IOWA
NATIONAL WEATHER SERVICE DES MOINES IA
400 AM CST SUN FEB 07 2016

NOTE: "FAIR" INDICATES FEW OR NO CLOUDS BELOW 12,000 FEET WITH NO
SIGNIFICANT WEATHER AND/OR OBSTRUCTIONS TO VISIBILITY.

* - THESE STATIONS ARE NOT NWS STATIONS...THUS NOT UNDER NWS
QUALITY CONTROL.  THEY ALSO DO NOT REPORT WEATHER SUCH
AS PRECIPITATION OR FOG.

IAZ001>003-012>014-020>022-031>034-043>046-071100-
   NORTHWEST IOWA

CITY           SKY/WX    TMP DP  RH WIND       PRES   REMARKS
CARROLL *      CLOUDY    34  28  80 W20       29.84S WCI  22
CHEROKEE *     PTCLDY    36  28  75 NW16      29.84S WCI  26
DENISON *      CLOUDY    32  27  80 W8        29.86R WCI  25
LE MARS *      CLEAR     39 N/A N/A NW20G25   29.87S WCI  30
ORANGE CITY *  CLEAR     34  30  86 W21       29.84S WCI  22
SHELDON *      CLEAR     34  28  80 W20       29.81R WCI  22
SIOUX CITY     CLEAR     40  27  59 NW18      29.88S WCI  31
SPENCER        CLEAR     33  25  72 W17       29.81R WCI  22
STORM LAKE *   CLEAR     32  30  93 W16       29.83S WCI  21
$$

IAZ055>058-069>071-079>083-090>094-071100-
   SOUTHWEST IOWA

CITY           SKY/WX    TMP DP  RH WIND       PRES   REMARKS
ATLANTIC *     CLOUDY    32  27  80 W10       29.90S WCI  24
AUDUBON *      CLOUDY    30  27  86 W10       29.88S WCI  21
CLARINDA *     CLOUDY    34  28  80 SW7       29.95R WCI  28
COUNCIL BLFS * CLOUDY    34  28  80 SW7       29.92S WCI  28
CRESTON *      CLOUDY    34  28  80 W10       29.90R WCI  26
HARLAN  *      PTCLDY    32  27  80 W10       29.92F WCI  24
LAMONI         CLOUDY    36  27  69 SW14      29.90F WCI  27
RED OAK *      CLEAR     34  30  86 W7        29.92S WCI  28
SHENANDOAH *   CLEAR     34  32  93 SW7       29.95R WCI  28
$$

IAZ047>049-059>061-072>074-084-071100-
   CENTRAL IOWA

CITY           SKY/WX    TMP DP  RH WIND       PRES   REMARKS
AMES           CLOUDY    34  28  79 W17       29.83S WCI  23
ANKENY *       CLOUDY    37  30  75 SW12G17   29.84S WCI  30
BOONE *        CLOUDY    34  28  80 W14       29.81F WCI  24
CHARITON *     CLOUDY    36  28  75 SW13      29.87F WCI  27
DES MOINES     CLOUDY    36  27  69 W13       29.86F WCI  27
GRINNELL*      CLOUDY    35  29  80 SW17      29.83F WCI  25
KNOXVILLE *    CLOUDY    37  28  70 SW16      29.83F WCI  28
MARSHALLTOWN   CLOUDY    36  28  73 SW12      29.80F WCI  28
NEWTON *       MIX PCPN  36  30  80 SW15      29.82F WCI  26
PELLA *        CLOUDY    37  28  70 SW10      29.87F WCI  30
$$

IAZ004>006-015-016-023>025-035-036-071100-
   NORTH CENTRAL IOWA

CITY           SKY/WX    TMP DP  RH WIND       PRES   REMARKS
ALGONA *       MOCLDY    32  28  86 W13       29.78S WCI  22
CLARION *      CLOUDY    34  28  80 W15       29.80R WCI  24
ESTHERVILLE    CLEAR     33  26  75 W18       29.77S WCI  22
FORT DODGE *   CLOUDY    36  27  69 W10       29.82R WCI  28
MASON CITY     CLOUDY    34  27  75 W21       29.77R WCI  22
FOREST CITY *    N/A     32  28  86 SW7       29.77S WCI  26
WEBSTER CITY * CLOUDY    34  30  86 W13       29.79S WCI  25
IOWA FALLS *   CLOUDY    34  30  85 SW18      29.79S WCI  23
$$

IAZ007>011-017>019-026>030-037>042-050>054-066-071100-
   NORTHEAST IOWA

CITY           SKY/WX    TMP DP  RH WIND       PRES   REMARKS
CEDAR RAPIDS   CLOUDY    36  30  79 SW10      29.83S WCI  28
CHARLES CITY * CLOUDY    34  32  93 SW14      29.77R WCI  24
CLINTON *      CLOUDY    37  30  75 SW17      29.87F WCI  27
DECORAH *      CLOUDY    36  30  80 SW9G15    29.72R WCI  29
DUBUQUE        CLOUDY    35  29  78 SW21      29.79F WCI  24
MONTICELLO *   CLOUDY    37  30  75 SW12      29.82F WCI  30
OELWEIN *      CLOUDY    36  32  87 S17       29.76F WCI  25
WATERLOO       CLOUDY    36  29  75 SW12      29.78F WCI  28
$$

IAZ064-065-067-068-078-071100-
   EAST CENTRAL IOWA

CITY           SKY/WX    TMP DP  RH WIND       PRES   REMARKS
DAVENPORT      PTCLDY    38  28  67 S16G24    29.88F WCI  29
IOWA CITY      MOCLDY    37  29  72 SW8       29.88F WCI  31
MT. PLEASANT * PTCLDY    40  31  70 SW15      29.90F WCI  32
MUSCATINE *    CLOUDY    39  30  70 S15       29.89F WCI  31
QUAD CITIES    PTCLDY    39  28  64 SW17G25   29.88F WCI  30
$$

IAZ062-063-075>077-085>089-095>099-071100-
   SOUTHEAST IOWA

CITY           SKY/WX    TMP DP  RH WIND       PRES   REMARKS
BURLINGTON     PTCLDY    37  30  75 SW15      29.92F WCI  28
FAIRFIELD *    CLOUDY    37  28  70 SW13      29.89F WCI  29
FORT MADISON * PTCLDY    37  30  75 S12       29.93F WCI  30
KEOKUK *       PTCLDY    37  30  75 S13       29.93F WCI  29
OSKALOOSA *      N/A     36  30  80 SW15      29.88F WCI  26
OTTUMWA        CLOUDY    38  28  67 SW15      29.88F WCI  29
WASHINGTON *   CLOUDY    37  30  75 SW14G22   29.89F WCI  29
$$

ABBREVIATIONS USED IN REMARKS
   TC - TEMPERATURES IN CELSIUS
  WCI - WIND CHILL INDEX
   HX - HEAT INDEX
  VSB - VISIBILITY
$$




USA.gov is the U.S. government's official web portal to all federal, state and local government web resources and services.